YUBILEINY (RS-30)

Last updated on Mon Oct 27 2025 00:03:16 GMT+0000 (Coordinated Universal Time)

1 32953U 08025A 25299.55011258 .00000012 00000+0 12414-4 0 9999 2 32953 82.5005 140.7764 0019914 100.9807 259.3514 12.43169781790661
UTC large
Height (km)
Speed (km/s)
/
Latitude / Longitude
Inclination (degrees)
Orbital Period (minutes)
Azimuth
Elevation
Range (km)
Doppler Factor

Next 0 passes for location: London (51.5072 / 0.1276)

Sorry there are no passes over London.